Location: *
(43.9900°N, 3.4811°E)
Time: 19:10:39
(UTC+00:00)

USA 234 - Pass Details

Date: 25 August 2019
Orbit: 1098 x 1109 km, 123.0° (Epoch: 09 September)

Event Time Altitude Azimuth Distance (km) Brightness Sun altitude
Exits shadow 20:06:54 22° 133° (SE) 2,189 4.2 -15.9°
Maximum altitude 20:11:24 84° 221° (SW) 1,115 3.3 -16.6°
Drops below altitude 10° 20:17:59 10° 309° (NW) 2,973 6.8 -17.6°
Sets 20:20:29 0° 311° (NW) 3,934 7.9 -17.9°
